FW5815 Weather Reports


Display with metric or nautical units.
time (UTC)temp
F
wind
direction
speed
MPH
gust
MPH
rain 1hr
in
rain 24hr
in
rain mn
in
humidity
%
barometer
mb
20260506002017 47 5 1.0 6.0 0.00 0.00 0.00 87 1010.1
20260506001531 47 5 2.0 6.0 0.00 0.00 0.00 86 1010.1
20260506001014 47 346 2.0 7.0 0.00 0.00 0.00 86 1010.2
20260506000516 47 11 2.0 7.0 0.00 0.00 0.00 86 1010.2
20260506000030 47 0 2.0 8.0 0.00 0.00 0.00 86 1010.2
20260505235514 47 360 2.0 8.0 0.00 0.00 0.00 86 1010.2
20260505235016 47 15 1.0 8.0 0.00 0.00 0.00 86 1010.2
20260505234533 47 5 2.0 6.0 0.00 0.00 0.00 86 1010.3
20260505234016 47 10 1.0 4.0 0.00 0.00 0.00 86 1010.3
20260505233518 46 11 1.0 4.0 0.00 0.00 0.00 86 1010.4
20260505233032 46 9 1.0 6.0 0.00 0.00 0.00 86 1010.4
20260505232513 46 9 1.0 7.0 0.00 0.00 0.00 86 1010.5
20260505232013 46 12 2.0 7.0 0.00 0.00 0.00 85 1010.5
20260505231532 46 15 2.0 5.0 0.00 0.00 0.00 85 1010.6
20260505231014 46 17 1.0 5.0 0.00 0.00 0.00 85 1010.6
20260505230514 46 18 1.0 8.0 0.00 0.00 0.00 85 1010.6
20260505230041 47 17 1.0 8.0 0.00 0.00 0.00 85 1010.5
20260505225515 47 18 2.0 8.0 0.00 0.00 0.00 85 1010.6
20260505225020 47 21 1.0 8.0 0.00 0.00 0.00 84 1010.6
20260505224533 47 26 2.0 6.0 0.00 0.00 0.00 84 1010.6
20260505224015 47 5 2.0 6.0 0.00 0.00 0.00 84 1010.6
20260505223518 47 352 2.0 9.0 0.00 0.00 0.00 85 1010.6
20260505223035 47 360 2.0 9.0 0.00 0.00 0.00 85 1010.7
20260505222519 47 5 1.0 6.0 0.00 0.00 0.00 85 1010.7
20260505222015 47 5 2.0 6.0 0.00 0.00 0.00 85 1010.8
20260505221533 47 360 2.0 6.0 0.00 0.00 0.00 85 1010.8
20260505221016 47 5 1.0 5.0 0.00 0.00 0.00 85 1010.8
20260505220517 46 5 1.0 5.0 0.00 0.00 0.00 85 1010.9
20260505220040 46 360 1.0 5.0 0.00 0.00 0.00 85 1011.0
20260505215516 47 352 1.0 4.0 0.00 0.00 0.00 85 1010.9
20260505215017 47 352 1.0 3.0 0.00 0.00 0.00 85 1011.0
20260505214538 47 352 0.0 3.0 0.00 0.00 0.00 85 1011.0
20260505214016 47 0 0.0 3.0 0.00 0.00 0.00 84 1011.1
20260505213520 47 352 1.0 4.0 0.00 0.00 0.00 84 1011.1
20260505213036 47 352 0.0 4.0 0.00 0.00 0.00 84 1011.2
20260505212516 48 0 1.0 4.0 0.00 0.00 0.00 84 1011.2
20260505212016 48 5 1.0 4.0 0.00 0.00 0.00 83 1011.2
20260505211534 48 5 2.0 5.0 0.00 0.00 0.00 83 1011.3
20260505211017 48 360 1.0 5.0 0.00 0.00 0.00 83 1011.2
20260505210518 48 360 1.0 5.0 0.00 0.00 0.00 83 1011.2
20260505210033 48 352 2.0 5.0 0.00 0.00 0.00 83 1011.3
20260505205515 48 5 2.0 6.0 0.00 0.00 0.00 82 1011.4
20260505205017 48 5 2.0 6.0 0.00 0.00 0.00 82 1011.5
20260505204535 49 9 2.0 6.0 0.00 0.00 0.00 82 1011.4
20260505204017 49 5 2.0 4.0 0.00 0.00 0.00 82 1011.4
20260505203517 49 5 1.0 6.0 0.00 0.00 0.00 82 1011.4
20260505203041 49 5 2.0 8.0 0.00 0.00 0.00 81 1011.4
20260505202516 49 5 2.0 8.0 0.00 0.00 0.00 81 1011.4
20260505202017 49 5 2.0 8.0 0.00 0.00 0.00 81 1011.3
20260505201536 49 352 2.0 6.0 0.00 0.00 0.00 81 1011.4
20260505201016 49 5 2.0 7.0 0.00 0.00 0.00 81 1011.4
20260505200518 50 352 3.0 7.0 0.00 0.00 0.00 80 1011.5
20260505200036 50 360 2.0 6.0 0.00 0.00 0.00 80 1011.4
20260505195519 50 348 2.0 6.0 0.00 0.00 0.00 80 1011.4
20260505195017 50 338 3.0 8.0 0.00 0.00 0.00 80 1011.3
20260505194533 50 360 3.0 8.0 0.00 0.00 0.00 80 1011.3
20260505194015 50 5 3.0 8.0 0.00 0.00 0.00 80 1011.1
20260505193514 51 352 3.0 8.0 0.00 0.00 0.00 80 1011.1
20260505193042 51 352 3.0 8.0 0.00 0.00 0.00 79 1011.0
20260505192516 51 13 3.0 8.0 0.00 0.00 0.00 79 1011.0
20260505192017 51 5 2.0 6.0 0.00 0.00 0.00 79 1011.0
20260505191529 51 5 3.0 10.0 0.00 0.00 0.00 78 1010.9
20260505191013 51 360 4.0 10.0 0.00 0.00 0.00 78 1010.9
20260505190515 52 9 3.0 10.0 0.00 0.00 0.00 78 1010.7
20260505190040 52 352 3.0 12.0 0.00 0.00 0.00 78 1010.8
20260505185516 52 5 4.0 12.0 0.00 0.00 0.00 77 1010.7
20260505185016 52 360 4.0 14.0 0.00 0.00 0.00 77 1010.7
20260505184533 53 46 4.0 14.0 0.00 0.00 0.00 77 1010.7
20260505184016 53 30 4.0 14.0 0.00 0.00 0.00 76 1010.7
20260505183515 53 10 5.0 10.0 0.00 0.00 0.00 76 1010.7
20260505183033 53 352 3.0 12.0 0.00 0.00 0.00 76 1010.7
20260505182514 53 352 3.0 12.0 0.00 0.00 0.00 76 1010.7
20260505182013 54 352 4.0 12.0 0.00 0.00 0.00 75 1010.6
20260505181534 54 11 3.0 12.0 0.00 0.00 0.00 75 1010.6
20260505181016 54 352 4.0 10.0 0.00 0.00 0.00 75 1010.6
20260505180513 54 360 3.0 12.0 0.00 0.00 0.00 75 1010.7
20260505180039 55 349 5.0 12.0 0.00 0.00 0.00 74 1010.6
20260505175514 55 352 4.0 9.0 0.00 0.00 0.00 74 1010.6
20260505175013 55 335 4.0 10.0 0.00 0.00 0.00 74 1010.6
20260505174529 55 352 3.0 10.0 0.00 0.00 0.00 74 1010.6
20260505174013 55 26 4.0 10.0 0.00 0.00 0.00 73 1010.6
20260505173515 55 24 3.0 10.0 0.00 0.00 0.00 73 1010.7
20260505173029 55 346 3.0 10.0 0.00 0.00 0.00 73 1010.7
20260505172514 56 349 3.0 10.0 0.00 0.00 0.00 72 1010.6
20260505172014 56 15 2.0 9.0 0.00 0.00 0.00 72 1010.6
20260505171528 56 352 4.0 10.0 0.00 0.00 0.00 72 1010.7
20260505171016 56 13 2.0 10.0 0.00 0.00 0.00 72 1010.7
20260505170516 56 17 3.0 9.0 0.00 0.00 0.00 71 1010.6
20260505170027 57 352 4.0 9.0 0.00 0.00 0.00 70 1010.8
20260505165515 57 360 3.0 9.0 0.00 0.00 0.00 71 1010.7
20260505165015 57 14 3.0 9.0 0.00 0.00 0.00 70 1010.8
20260505164538 57 352 4.0 9.0 0.00 0.00 0.00 70 1010.8
20260505164014 57 5 4.0 9.0 0.00 0.00 0.00 69 1010.9
20260505163515 58 19 3.0 8.0 0.00 0.00 0.00 69 1010.7
20260505163034 58 5 3.0 9.0 0.00 0.00 0.00 69 1010.8
20260505162541 58 5 3.0 9.0 0.00 0.00 0.00 69 1010.8
20260505162018 58 49 4.0 9.0 0.00 0.00 0.00 68 1010.7
20260505161532 58 352 3.0 8.0 0.00 0.00 0.00 68 1010.8
20260505161018 58 26 3.0 10.0 0.00 0.00 0.00 68 1010.8
20260505160516 58 88 3.0 10.0 0.00 0.00 0.00 68 1010.8
20260505153039 59 100 3.0 11.0 0.00 0.00 0.00 65 1010.8
20260505152515 59 17 2.0 8.0 0.00 0.00 0.00 66 1010.8
20260505152024 59 5 3.0 8.0 0.00 0.00 0.00 65 1010.9
20260505151538 59 41 3.0 8.0 0.00 0.00 0.00 66 1010.9
20260505151016 59 27 3.0 12.0 0.00 0.00 0.00 66 1010.8
20260505150515 59 12 3.0 12.0 0.00 0.00 0.00 68 1010.9
20260505140515 60 106 3.0 8.0 0.00 0.00 0.00 64 1011.1
20260505125017 60 107 3.0 10.0 0.00 0.00 0.00 63 1011.4
20260505124534 60 20 2.0 8.0 0.00 0.00 0.00 65 1011.3
20260505124016 60 350 2.0 9.0 0.00 0.00 0.00 63 1011.4
20260505123516 61 347 4.0 9.0 0.00 0.00 0.00 62 1011.4
20260505123047 61 98 3.0 9.0 0.00 0.00 0.00 63 1011.5
20260505122516 61 53 3.0 10.0 0.00 0.00 0.00 63 1011.5
20260505122016 61 352 3.0 11.0 0.00 0.00 0.00 62 1011.4
20260505121533 61 360 4.0 11.0 0.00 0.00 0.00 64 1011.4
20260505121016 61 5 3.0 10.0 0.00 0.00 0.00 63 1011.4
20260505120516 61 352 4.0 11.0 0.00 0.00 0.00 64 1011.3
20260505120043 60 107 2.0 11.0 0.00 0.00 0.00 64 1011.4
20260505115517 60 5 4.0 12.0 0.00 0.00 0.00 63 1011.4
20260505115016 61 360 3.0 12.0 0.00 0.00 0.00 63 1011.5
20260505114531 61 81 3.0 12.0 0.00 0.00 0.00 63 1011.5
20260505114016 61 360 4.0 13.0 0.00 0.00 0.00 62 1011.6
20260505113517 61 360 4.0 13.0 0.00 0.00 0.00 63 1011.6
20260505113038 61 27 5.0 13.0 0.00 0.00 0.00 63 1011.7
20260505112520 61 100 5.0 13.0 0.00 0.00 0.00 62 1011.6
20260505112015 61 93 3.0 12.0 0.00 0.00 0.00 62 1011.7
20260505111534 61 62 4.0 10.0 0.00 0.00 0.00 63 1011.6
20260505111015 61 22 4.0 9.0 0.00 0.00 0.00 65 1011.8
20260505110518 62 334 3.0 10.0 0.00 0.00 0.00 64 1011.8
20260505102016 61 24 2.0 10.0 0.00 0.00 0.00 68 1012.0
20260505101534 60 100 4.0 10.0 0.00 0.00 0.00 67 1012.1
20260505101018 60 108 3.0 9.0 0.00 0.00 0.00 68 1012.1
20260505100516 60 25 2.0 9.0 0.00 0.00 0.00 68 1012.2
20260505100034 60 32 4.0 9.0 0.00 0.00 0.00 67 1012.0
20260505095517 59 78 3.0 9.0 0.00 0.00 0.00 68 1012.1
20260505095016 60 5 3.0 13.0 0.00 0.00 0.00 67 1012.1
20260505094534 59 73 3.0 13.0 0.00 0.00 0.00 68 1012.2
20260505094015 60 352 4.0 10.0 0.00 0.00 0.00 68 1012.1
20260505093515 59 350 2.0 9.0 0.00 0.00 0.00 67 1012.1
20260505093040 59 5 4.0 9.0 0.00 0.00 0.00 67 1012.1
20260505092517 60 352 3.0 9.0 0.00 0.00 0.00 67 1012.2
20260505092015 60 360 2.0 8.0 0.00 0.00 0.00 68 1012.3
20260505091533 59 20 3.0 9.0 0.00 0.00 0.00 68 1012.2
20260505091015 58 13 2.0 9.0 0.00 0.00 0.00 70 1012.2
20260505090516 57 13 3.0 9.0 0.00 0.00 0.00 71 1012.2
20260505090030 57 115 2.0 9.0 0.00 0.00 0.00 72 1012.2
20260505085518 58 12 3.0 9.0 0.00 0.00 0.00 71 1012.2
20260505085017 57 16 4.0 10.0 0.00 0.00 0.00 71 1012.2
20260505084552 57 39 4.0 10.0 0.00 0.00 0.00 72 1012.1
20260505084016 57 26 3.0 8.0 0.00 0.00 0.00 74 1012.1
20260505083518 56 360 3.0 8.0 0.00 0.00 0.00 77 1012.2
20260505083055 54 360 3.0 8.0 0.00 0.00 0.00 77 1012.2
20260505082516 55 352 3.0 9.0 0.00 0.00 0.00 78 1012.2
20260505082016 54 5 3.0 9.0 0.00 0.00 0.00 78 1012.2
20260505081551 54 42 3.0 9.0 0.00 0.00 0.00 76 1012.2
20260505081015 54 99 3.0 11.0 0.00 0.00 0.00 78 1012.1
20260505080517 54 17 4.0 12.0 0.00 0.00 0.00 77 1012.0
20260505080042 54 360 6.0 12.0 0.00 0.00 0.00 78 1012.0
20260505075518 54 5 3.0 12.0 0.00 0.00 0.00 79 1012.0
20260505075016 53 16 3.0 8.0 0.00 0.00 0.00 80 1012.0
20260505074531 53 11 2.0 8.0 0.00 0.00 0.00 81 1012.2
20260505074017 53 12 3.0 9.0 0.00 0.00 0.00 81 1012.3
20260505073515 53 12 4.0 10.0 0.00 0.00 0.00 82 1012.2
20260505073045 53 12 2.0 10.0 0.00 0.00 0.00 83 1012.4
20260505072515 52 13 3.0 10.0 0.00 0.00 0.00 83 1012.5
20260505072014 52 14 3.0 10.0 0.00 0.00 0.00 84 1012.4
20260505071544 52 15 3.0 9.0 0.00 0.00 0.00 84 1012.6
20260505071016 52 15 3.0 9.0 0.00 0.00 0.00 84 1012.5
20260505070521 52 19 2.0 7.0 0.00 0.00 0.00 85 1012.6
20260505070042 52 19 3.0 8.0 0.00 0.00 0.00 86 1012.6
20260505065517 52 19 2.0 8.0 0.00 0.00 0.00 86 1012.7
20260505065017 52 20 3.0 7.0 0.00 0.00 0.00 86 1012.6
20260505064535 52 20 2.0 8.0 0.00 0.00 0.00 86 1012.8
20260505064019 51 20 3.0 9.0 0.00 0.00 0.00 86 1012.8
20260505063516 51 22 3.0 9.0 0.00 0.00 0.00 86 1012.9
20260505063039 51 5 2.0 9.0 0.00 0.00 0.00 87 1013.0
20260505062517 51 5 3.0 9.0 0.00 0.00 0.00 87 1013.0
20260505062016 51 9 2.0 9.0 0.00 0.00 0.00 87 1012.9
20260505061539 51 5 2.0 9.0 0.00 0.00 0.00 87 1012.9
20260505061017 51 5 2.0 8.0 0.00 0.00 0.00 87 1013.0
20260505060517 51 5 3.0 8.0 0.00 0.00 0.00 87 1012.9
20260505060053 51 5 2.0 8.0 0.00 0.00 0.00 87 1013.0
20260505055516 51 9 1.0 8.0 0.00 0.00 0.00 88 1012.9
20260505055014 51 10 2.0 8.0 0.00 0.00 0.00 87 1012.9
20260505054533 51 9 2.0 8.0 0.00 0.00 0.00 88 1012.9
20260505054020 50 0 2.0 7.0 0.00 0.00 0.00 88 1012.8
20260505053515 50 9 3.0 9.0 0.00 0.00 0.00 88 1012.8
20260505053037 50 10 2.0 9.0 0.00 0.00 0.00 88 1012.9
20260505052515 50 9 2.0 7.0 0.00 0.00 0.00 88 1012.8
20260505052016 50 9 1.0 5.0 0.00 0.00 0.00 88 1012.7
20260505051532 50 9 2.0 5.0 0.00 0.00 0.00 88 1012.7
20260505051017 50 9 2.0 7.0 0.00 0.00 0.00 88 1012.5
20260505050518 50 9 2.0 7.0 0.00 0.00 0.00 88 1012.7
20260505041545 50 0 2.0 8.0 0.00 0.00 0.00 87 1012.5
20260505041015 50 9 2.0 8.0 0.00 0.00 0.00 87 1012.5
20260505040521 50 9 2.0 7.0 0.00 0.00 0.00 87 1012.7
20260505040034 50 9 2.0 7.0 0.00 0.00 0.00 87 1012.7
20260505035516 50 10 2.0 5.0 0.00 0.00 0.00 87 1012.6
20260505035015 50 10 1.0 7.0 0.00 0.00 0.00 87 1012.7
20260505034532 50 10 2.0 7.0 0.00 0.00 0.00 87 1012.7
20260505034020 50 10 2.0 7.0 0.00 0.00 0.00 87 1012.7
20260505033516 50 10 2.0 8.0 0.00 0.00 0.00 87 1012.7
20260505033034 50 10 2.0 8.0 0.00 0.00 0.00 87 1012.8
20260505032516 50 11 3.0 9.0 0.00 0.00 0.00 87 1012.8
20260505032021 50 10 2.0 9.0 0.00 0.00 0.00 87 1012.8
20260505031533 50 11 1.0 7.0 0.00 0.00 0.00 87 1012.8
20260505031018 50 11 3.0 9.0 0.00 0.00 0.00 87 1012.8
20260505030515 50 10 2.0 9.0 0.00 0.00 0.00 87 1012.8
20260505030034 50 13 2.0 7.0 0.00 0.00 0.00 87 1012.8
20260505025520 50 12 2.0 7.0 0.00 0.00 0.00 87 1012.8
20260505025015 50 13 2.0 8.0 0.00 0.00 0.00 88 1012.8
20260505024532 50 13 2.0 8.0 0.00 0.00 0.00 88 1012.8
20260505024018 51 10 1.0 4.0 0.00 0.00 0.00 88 1012.8
20260505023515 51 10 2.0 7.0 0.00 0.00 0.00 87 1012.9
20260505023037 51 10 2.0 8.0 0.00 0.00 0.00 87 1013.0
20260505022518 51 11 2.0 8.0 0.00 0.00 0.00 87 1013.0
20260505022015 51 10 2.0 7.0 0.00 0.00 0.00 87 1013.0
20260505021532 51 11 1.0 8.0 0.00 0.00 0.00 87 1013.0
20260505021017 51 0 2.0 9.0 0.00 0.00 0.00 87 1013.1
20260505020517 51 9 2.0 9.0 0.00 0.00 0.00 87 1013.1
20260505020039 51 5 2.0 9.0 0.00 0.00 0.00 87 1013.2
20260505015517 51 9 3.0 9.0 0.00 0.00 0.00 87 1013.1
20260505015016 51 5 2.0 5.0 0.00 0.00 0.00 87 1013.1
20260505014551 51 5 2.0 5.0 0.00 0.00 0.00 87 1013.1
20260505014015 51 5 1.0 6.0 0.00 0.00 0.00 87 1013.1
20260505013516 51 5 2.0 9.0 0.00 0.00 0.00 87 1013.2
20260505013039 51 5 2.0 9.0 0.00 0.00 0.00 87 1013.2
20260505012518 51 5 2.0 8.0 0.00 0.00 0.00 87 1013.2
20260505012016 51 5 2.0 5.0 0.00 0.00 0.00 87 1013.2
20260505011538 51 5 2.0 8.0 0.00 0.00 0.00 87 1013.2
20260505011017 51 5 3.0 8.0 0.00 0.00 0.00 87 1013.2
20260505010516 51 5 1.0 6.0 0.00 0.00 0.00 87 1013.3
20260505010036 51 5 3.0 9.0 0.00 0.00 0.00 87 1013.3
20260505005517 51 5 2.0 9.0 0.00 0.00 0.00 87 1013.3
20260505005015 51 5 3.0 10.0 0.00 0.00 0.00 87 1013.5
20260505004545 51 5 4.0 10.0 0.00 0.00 0.00 87 1013.5
20260505004017 51 5 3.0 9.0 0.00 0.00 0.00 87 1013.5
20260505003516 51 5 3.0 11.0 0.00 0.00 0.00 87 1013.5
20260505003050 52 9 3.0 11.0 0.00 0.00 0.00 87 1013.5
20260505002515 52 10 3.0 11.0 0.00 0.00 0.00 87 1013.6